Terug naar catalogus

COSMOS 2535 DEB

ActiefSSO
NORAD 44633·DEBRIS·🇷🇺 Russia

Gelanceerd Jul 10, 2019 vanaf Plesetsk Cosmodrome

Loading…

Volgende Passages (komende 24 uur)

TLE

VersSource: Space-Track

Epoch: Sep 13, 2026, 04:19 UTC

1 44633U 19039K   26256.18035146  .00000980  00000-0  12557-3 0  9991
2 44633  97.7363 241.6989 0050216 117.0059 243.6295 14.82632689373725

Volg COSMOS 2535 DEB in realtime met AllMySat

Download on the App Store